| time (UTC) | temp F | wind direction | speed MPH | gust MPH | rain 1hr in | rain 24hr in | rain mn in | humidity % | barometer mb |
| 20260506145519 | 79 | 71 | 0.0 | 3.0 | 0.00 | 0.00 | 0.00 | 94 | 1007.8 |
| 20260506145508 | 79 | 70 | 0.0 | 3.0 | 0.00 | 0.00 | 0.00 | 94 | 1006.6 |
| 20260506145018 | 78 | 234 | 0.0 | 1.0 | 0.00 | 0.00 | 0.00 | 94 | 1007.8 |
| 20260506145008 | 78 | 223 | 0.0 | 1.0 | 0.00 | 0.00 | 0.00 | 94 | 1006.5 |
| 20260506144617 | 78 | 110 | 0.0 | 0.0 | 0.00 | 0.00 | 0.00 | 95 | 1007.5 |
| 20260506144116 | 78 | 105 | 0.0 | 1.0 | 0.00 | 0.00 | 0.00 | 95 | 1007.8 |
| 20260506144008 | 78 | 105 | 0.0 | 3.0 | 0.00 | 0.00 | 0.00 | 94 | 1006.4 |
| 20260506143617 | 78 | 92 | 1.0 | 3.0 | 0.00 | 0.00 | 0.00 | 95 | 1007.8 |
| 20260506143506 | 78 | 71 | 0.0 | 1.0 | 0.00 | 0.00 | 0.00 | 95 | 1006.5 |
| 20260506143116 | 78 | 78 | 0.0 | 1.0 | 0.00 | 0.00 | 0.00 | 95 | 1007.8 |
| 20260506143005 | 77 | 78 | 0.0 | 4.0 | 0.00 | 0.00 | 0.00 | 95 | 1006.6 |
| 20260506142617 | 77 | 111 | 0.0 | 0.0 | 0.00 | 0.00 | 0.00 | 95 | 1007.8 |
| 20260506142502 | 77 | 82 | 0.0 | 4.0 | 0.00 | 0.00 | 0.00 | 95 | 1006.5 |
| 20260506142116 | 77 | 281 | 1.0 | 2.0 | 0.00 | 0.00 | 0.00 | 95 | 1007.8 |
| 20260506142000 | 77 | 103 | 0.0 | 2.0 | 0.00 | 0.00 | 0.00 | 95 | 1006.5 |
| 20260506141616 | 77 | 107 | 0.0 | 2.0 | 0.00 | 0.00 | 0.00 | 95 | 1007.5 |
| 20260506141500 | 77 | 102 | 0.0 | 2.0 | 0.00 | 0.00 | 0.00 | 95 | 1006.5 |
| 20260506141116 | 77 | 103 | 0.0 | 2.0 | 0.00 | 0.00 | 0.00 | 95 | 1007.8 |
| 20260506140617 | 77 | 79 | 0.0 | 2.0 | 0.00 | 0.00 | 0.00 | 95 | 1007.5 |
| 20260506140115 | 77 | 15 | 0.0 | 0.0 | 0.00 | 0.00 | 0.00 | 95 | 1007.5 |
| 20260506135952 | 77 | 15 | 0.0 | 0.0 | 0.00 | 0.00 | 0.00 | 95 | 1006.4 |
| 20260506135616 | 77 | 13 | 0.0 | 0.0 | 0.00 | 0.00 | 0.00 | 95 | 1007.5 |
| 20260506135450 | 77 | 13 | 0.0 | 0.0 | 0.00 | 0.00 | 0.00 | 95 | 1006.3 |
| 20260506135117 | 77 | 12 | 0.0 | 0.0 | 0.00 | 0.00 | 0.00 | 95 | 1007.5 |
| 20260506134949 | 77 | 13 | 0.0 | 1.0 | 0.00 | 0.00 | 0.00 | 95 | 1006.5 |
| 20260506134618 | 77 | 309 | 0.0 | 0.0 | 0.00 | 0.00 | 0.00 | 95 | 1007.5 |
| 20260506134447 | 77 | 309 | 0.0 | 1.0 | 0.00 | 0.00 | 0.00 | 95 | 1006.4 |
| 20260506134114 | 77 | 90 | 0.0 | 1.0 | 0.00 | 0.00 | 0.00 | 95 | 1007.5 |
| 20260506133945 | 77 | 90 | 0.0 | 1.0 | 0.00 | 0.01 | 0.00 | 95 | 1006.4 |
| 20260506133616 | 77 | 90 | 0.0 | 1.0 | 0.00 | 0.00 | 0.00 | 95 | 1007.5 |
| 20260506133444 | 77 | 89 | 0.0 | 1.0 | 0.00 | 0.01 | 0.00 | 95 | 1006.5 |
| 20260506133114 | 77 | 89 | 0.0 | 0.0 | 0.00 | 0.00 | 0.00 | 95 | 1007.8 |
| 20260506132944 | 77 | 90 | 0.0 | 1.0 | 0.00 | 0.01 | 0.00 | 95 | 1006.7 |
| 20260506132614 | 77 | 82 | 0.0 | 0.0 | 0.00 | 0.00 | 0.00 | 95 | 1007.8 |
| 20260506132442 | 77 | 82 | 0.0 | 1.0 | 0.00 | 0.01 | 0.00 | 95 | 1006.6 |
| 20260506132114 | 77 | 82 | 0.0 | 1.0 | 0.00 | 0.00 | 0.00 | 95 | 1007.8 |
| 20260506131940 | 77 | 82 | 0.0 | 1.0 | 0.00 | 0.01 | 0.00 | 95 | 1006.5 |
| 20260506131614 | 77 | 88 | 0.0 | 1.0 | 0.00 | 0.00 | 0.00 | 95 | 1007.8 |
| 20260506131438 | 77 | 88 | 0.0 | 1.0 | 0.00 | 0.01 | 0.00 | 95 | 1006.5 |
| 20260506131115 | 77 | 84 | 0.0 | 0.0 | 0.00 | 0.00 | 0.00 | 96 | 1007.5 |
| 20260506130614 | 77 | 84 | 0.0 | 1.0 | 0.00 | 0.00 | 0.00 | 96 | 1007.8 |
| 20260506130438 | 76 | 85 | 0.0 | 2.0 | 0.00 | 0.01 | 0.00 | 96 | 1006.6 |
| 20260506130113 | 77 | 90 | 0.0 | 1.0 | 0.00 | 0.00 | 0.00 | 96 | 1007.5 |
| 20260506125938 | 76 | 90 | 0.0 | 3.0 | 0.00 | 0.01 | 0.00 | 96 | 1006.5 |
| 20260506125613 | 77 | 65 | 0.0 | 1.0 | 0.00 | 0.00 | 0.00 | 96 | 1007.5 |
| 20260506125112 | 77 | 105 | 0.0 | 1.0 | 0.00 | 0.00 | 0.00 | 96 | 1007.5 |
| 20260506124638 | 76 | 104 | 0.0 | 1.0 | 0.00 | 0.00 | 0.00 | 96 | 1007.5 |
| 20260506124436 | 76 | 105 | 0.0 | 1.0 | 0.00 | 0.01 | 0.00 | 96 | 1006.3 |
| 20260506124138 | 76 | 104 | 0.0 | 1.0 | 0.00 | 0.00 | 0.00 | 96 | 1007.5 |
| 20260506123934 | 76 | 103 | 0.0 | 1.0 | 0.00 | 0.01 | 0.00 | 96 | 1006.4 |
| 20260506123646 | 76 | 103 | 0.0 | 1.0 | 0.00 | 0.00 | 0.00 | 96 | 1007.5 |
| 20260506123431 | 76 | 103 | 0.0 | 1.0 | 0.00 | 0.01 | 0.00 | 96 | 1006.3 |
| 20260506123212 | 76 | 96 | 0.0 | 1.0 | 0.00 | 0.00 | 0.00 | 96 | 1007.5 |
| 20260506122933 | 76 | 101 | 0.0 | 0.0 | 0.00 | 0.01 | 0.00 | 96 | 1006.4 |
| 20260506122717 | 76 | 76 | 0.0 | 0.0 | 0.00 | 0.00 | 0.00 | 96 | 1007.5 |
| 20260506122212 | 76 | 75 | 0.0 | 0.0 | 0.00 | 0.00 | 0.00 | 96 | 1007.5 |
| 20260506121923 | 76 | 75 | 0.0 | 2.0 | 0.00 | 0.01 | 0.00 | 96 | 1006.3 |
| 20260506121717 | 76 | 75 | 0.0 | 0.0 | 0.00 | 0.00 | 0.00 | 96 | 1007.5 |
| 20260506121422 | 76 | 75 | 0.0 | 2.0 | 0.00 | 0.01 | 0.00 | 96 | 1006.4 |
| 20260506121215 | 76 | 69 | 1.0 | 2.0 | 0.00 | 0.00 | 0.00 | 96 | 1007.5 |
| 20260506120922 | 76 | 92 | 0.0 | 1.0 | 0.00 | 0.01 | 0.00 | 96 | 1006.5 |
| 20260506120711 | 76 | 91 | 0.0 | 1.0 | 0.00 | 0.00 | 0.00 | 96 | 1007.5 |
| 20260506120422 | 76 | 94 | 0.0 | 1.0 | 0.00 | 0.01 | 0.00 | 96 | 1006.3 |
| 20260506120215 | 76 | 94 | 0.0 | 0.0 | 0.00 | 0.00 | 0.00 | 96 | 1007.5 |
| 20260506115919 | 76 | 94 | 0.0 | 1.0 | 0.00 | 0.01 | 0.00 | 96 | 1006.2 |
| 20260506115714 | 76 | 94 | 0.0 | 0.0 | 0.00 | 0.00 | 0.00 | 96 | 1007.5 |
| 20260506115418 | 76 | 94 | 0.0 | 1.0 | 0.00 | 0.01 | 0.00 | 96 | 1006.2 |
| 20260506115210 | 76 | 93 | 0.0 | 1.0 | 0.00 | 0.00 | 0.00 | 96 | 1007.5 |
| 20260506114713 | 76 | 94 | 0.0 | 0.0 | 0.00 | 0.00 | 0.00 | 96 | 1007.5 |
| 20260506114212 | 76 | 92 | 0.0 | 0.0 | 0.00 | 0.00 | 0.00 | 96 | 1007.5 |
| 20260506113914 | 76 | 92 | 0.0 | 0.0 | 0.00 | 0.01 | 0.00 | 96 | 1006.2 |
| 20260506113713 | 76 | 92 | 0.0 | 0.0 | 0.00 | 0.00 | 0.00 | 96 | 1007.5 |
| 20260506113412 | 76 | 92 | 0.0 | 1.0 | 0.00 | 0.01 | 0.00 | 96 | 1006.1 |
| 20260506113212 | 76 | 105 | 0.0 | 0.0 | 0.00 | 0.00 | 0.00 | 96 | 1007.1 |
| 20260506112911 | 76 | 105 | 0.0 | 1.0 | 0.00 | 0.01 | 0.00 | 96 | 1006.0 |
| 20260506112710 | 76 | 105 | 0.0 | 0.0 | 0.00 | 0.00 | 0.00 | 96 | 1007.1 |
| 20260506112407 | 76 | 107 | 0.0 | 1.0 | 0.00 | 0.01 | 0.00 | 96 | 1006.0 |
| 20260506112212 | 76 | 107 | 0.0 | 1.0 | 0.00 | 0.00 | 0.00 | 96 | 1007.1 |
| 20260506111908 | 76 | 108 | 0.0 | 1.0 | 0.00 | 0.01 | 0.00 | 96 | 1006.0 |
| 20260506111712 | 76 | 107 | 0.0 | 1.0 | 0.00 | 0.00 | 0.00 | 96 | 1007.1 |
| 20260506111406 | 76 | 76 | 0.0 | 2.0 | 0.00 | 0.01 | 0.00 | 95 | 1005.9 |
| 20260506111214 | 76 | 94 | 0.0 | 0.0 | 0.00 | 0.00 | 0.00 | 95 | 1007.1 |
| 20260506110904 | 76 | 93 | 0.0 | 2.0 | 0.00 | 0.01 | 0.00 | 95 | 1005.9 |
| 20260506110712 | 76 | 94 | 0.0 | 2.0 | 0.00 | 0.00 | 0.00 | 95 | 1007.1 |
| 20260506110404 | 76 | 325 | 0.0 | 1.0 | 0.00 | 0.01 | 0.00 | 95 | 1005.9 |
| 20260506110211 | 76 | 325 | 0.0 | 0.0 | 0.00 | 0.00 | 0.00 | 95 | 1007.1 |
| 20260506105710 | 76 | 101 | 0.0 | 0.0 | 0.00 | 0.00 | 0.00 | 95 | 1006.8 |
| 20260506105404 | 76 | 96 | 0.0 | 1.0 | 0.00 | 0.01 | 0.00 | 95 | 1005.8 |
| 20260506105212 | 76 | 96 | 0.0 | 1.0 | 0.00 | 0.00 | 0.00 | 95 | 1006.8 |
| 20260506104858 | 76 | 97 | 0.0 | 1.0 | 0.00 | 0.01 | 0.00 | 95 | 1005.7 |
| 20260506104741 | 76 | 97 | 0.0 | 1.0 | 0.00 | 0.00 | 0.00 | 95 | 1006.8 |
| 20260506104351 | 76 | 74 | 0.0 | 2.0 | 0.00 | 0.01 | 0.00 | 95 | 1005.6 |
| 20260506104239 | 76 | 74 | 0.0 | 0.0 | 0.00 | 0.00 | 0.00 | 95 | 1006.8 |
| 20260506103852 | 76 | 65 | 0.0 | 2.0 | 0.00 | 0.01 | 0.00 | 95 | 1005.7 |
| 20260506103742 | 76 | 77 | 0.0 | 2.0 | 0.00 | 0.00 | 0.00 | 95 | 1006.8 |
| 20260506103353 | 76 | 132 | 0.0 | 1.0 | 0.00 | 0.01 | 0.00 | 95 | 1005.7 |
| 20260506103244 | 76 | 133 | 0.0 | 0.0 | 0.00 | 0.00 | 0.00 | 95 | 1006.8 |
| 20260506102850 | 76 | 111 | 0.0 | 1.0 | 0.00 | 0.01 | 0.00 | 95 | 1005.6 |
| 20260506102743 | 76 | 61 | 0.0 | 1.0 | 0.00 | 0.00 | 0.00 | 95 | 1006.8 |
| 20260506102351 | 76 | 64 | 0.0 | 1.0 | 0.00 | 0.01 | 0.00 | 95 | 1005.8 |
| 20260506102239 | 76 | 74 | 0.0 | 1.0 | 0.00 | 0.00 | 0.00 | 95 | 1006.8 |
| 20260506101850 | 76 | 74 | 0.0 | 1.0 | 0.00 | 0.01 | 0.00 | 95 | 1005.8 |
| 20260506101741 | 76 | 74 | 0.0 | 1.0 | 0.00 | 0.00 | 0.00 | 95 | 1006.8 |
| 20260506101240 | 76 | 74 | 0.0 | 1.0 | 0.00 | 0.00 | 0.00 | 95 | 1006.8 |
| 20260506100847 | 76 | 74 | 0.0 | 1.0 | 0.00 | 0.01 | 0.00 | 95 | 1005.8 |
| 20260506100739 | 76 | 74 | 0.0 | 0.0 | 0.00 | 0.00 | 0.00 | 95 | 1006.8 |
| 20260506100241 | 76 | 74 | 0.0 | 0.0 | 0.00 | 0.00 | 0.00 | 95 | 1006.8 |
| 20260506095846 | 76 | 67 | 0.0 | 1.0 | 0.00 | 0.01 | 0.00 | 95 | 1005.7 |
| 20260506095729 | 77 | 66 | 0.0 | 0.0 | 0.00 | 0.00 | 0.00 | 95 | 1006.8 |
| 20260506095345 | 76 | 66 | 0.0 | 1.0 | 0.00 | 0.01 | 0.00 | 95 | 1005.7 |
| 20260506095229 | 77 | 67 | 0.0 | 1.0 | 0.00 | 0.00 | 0.00 | 95 | 1006.8 |
| 20260506094847 | 76 | 67 | 0.0 | 1.0 | 0.00 | 0.01 | 0.00 | 95 | 1005.7 |
| 20260506094731 | 77 | 62 | 0.0 | 1.0 | 0.00 | 0.00 | 0.00 | 95 | 1006.8 |
| 20260506094347 | 76 | 61 | 0.0 | 1.0 | 0.00 | 0.01 | 0.00 | 95 | 1005.7 |
| 20260506094230 | 77 | 18 | 0.0 | 0.0 | 0.00 | 0.00 | 0.00 | 95 | 1006.8 |
| 20260506093846 | 76 | 18 | 0.0 | 1.0 | 0.00 | 0.01 | 0.00 | 95 | 1005.7 |
| 20260506093729 | 77 | 18 | 0.0 | 1.0 | 0.00 | 0.00 | 0.00 | 95 | 1006.8 |
| 20260506093343 | 77 | 33 | 0.0 | 1.0 | 0.00 | 0.01 | 0.00 | 95 | 1005.7 |
| 20260506093229 | 77 | 33 | 0.0 | 1.0 | 0.00 | 0.00 | 0.00 | 95 | 1006.8 |
| 20260506092844 | 76 | 34 | 0.0 | 1.0 | 0.00 | 0.01 | 0.00 | 95 | 1005.6 |
| 20260506092728 | 77 | 33 | 0.0 | 0.0 | 0.00 | 0.00 | 0.00 | 95 | 1006.8 |
| 20260506092344 | 77 | 32 | 0.0 | 0.0 | 0.00 | 0.01 | 0.00 | 94 | 1005.7 |
| 20260506092228 | 77 | 32 | 0.0 | 0.0 | 0.00 | 0.00 | 0.00 | 94 | 1006.8 |
| 20260506091844 | 77 | 32 | 0.0 | 0.0 | 0.00 | 0.01 | 0.00 | 94 | 1005.8 |
| 20260506091729 | 77 | 32 | 0.0 | 0.0 | 0.00 | 0.00 | 0.00 | 94 | 1006.8 |
| 20260506091343 | 77 | 32 | 0.0 | 1.0 | 0.00 | 0.01 | 0.00 | 94 | 1005.6 |
| 20260506091230 | 77 | 33 | 0.0 | 0.0 | 0.00 | 0.00 | 0.00 | 94 | 1006.8 |
| 20260506090843 | 77 | 33 | 0.0 | 1.0 | 0.00 | 0.01 | 0.00 | 94 | 1005.6 |
| 20260506090730 | 77 | 32 | 0.0 | 0.0 | 0.00 | 0.00 | 0.00 | 94 | 1006.8 |
| 20260506090343 | 77 | 32 | 0.0 | 1.0 | 0.00 | 0.01 | 0.00 | 94 | 1005.7 |
| 20260506090229 | 77 | 32 | 0.0 | 1.0 | 0.00 | 0.00 | 0.00 | 94 | 1006.8 |
| 20260506085844 | 77 | 32 | 0.0 | 1.0 | 0.00 | 0.01 | 0.00 | 94 | 1005.8 |
| 20260506085728 | 77 | 32 | 0.0 | 0.0 | 0.00 | 0.00 | 0.00 | 94 | 1006.8 |
| 20260506085343 | 77 | 267 | 0.0 | 1.0 | 0.00 | 0.01 | 0.00 | 94 | 1005.4 |
| 20260506085227 | 77 | 267 | 0.0 | 1.0 | 0.00 | 0.00 | 0.00 | 94 | 1006.4 |
| 20260506084841 | 77 | 264 | 0.0 | 1.0 | 0.00 | 0.01 | 0.00 | 94 | 1005.4 |
| 20260506084728 | 77 | 22 | 0.0 | 0.0 | 0.00 | 0.00 | 0.00 | 94 | 1006.4 |
| 20260506084340 | 77 | 23 | 0.0 | 1.0 | 0.00 | 0.01 | 0.00 | 94 | 1005.5 |
| 20260506084226 | 77 | 282 | 0.0 | 0.0 | 0.00 | 0.00 | 0.00 | 94 | 1006.8 |
| 20260506083844 | 77 | 282 | 0.0 | 1.0 | 0.00 | 0.01 | 0.00 | 93 | 1005.7 |
| 20260506083727 | 77 | 283 | 0.0 | 0.0 | 0.00 | 0.00 | 0.00 | 93 | 1006.8 |
| 20260506083340 | 77 | 98 | 0.0 | 1.0 | 0.00 | 0.01 | 0.00 | 93 | 1005.7 |
| 20260506083226 | 77 | 98 | 0.0 | 1.0 | 0.00 | 0.00 | 0.00 | 93 | 1006.8 |
| 20260506082840 | 77 | 98 | 0.0 | 1.0 | 0.00 | 0.01 | 0.00 | 93 | 1005.7 |
| 20260506082727 | 77 | 99 | 0.0 | 1.0 | 0.00 | 0.00 | 0.00 | 93 | 1006.8 |
| 20260506082340 | 77 | 100 | 0.0 | 1.0 | 0.00 | 0.01 | 0.00 | 93 | 1005.7 |
| 20260506082226 | 77 | 100 | 0.0 | 0.0 | 0.00 | 0.00 | 0.00 | 93 | 1006.8 |
| 20260506081841 | 77 | 101 | 0.0 | 1.0 | 0.00 | 0.01 | 0.00 | 93 | 1005.6 |
| 20260506081728 | 77 | 101 | 0.0 | 0.0 | 0.00 | 0.00 | 0.00 | 93 | 1006.8 |
| 20260506081335 | 77 | 103 | 0.0 | 1.0 | 0.00 | 0.01 | 0.00 | 93 | 1005.6 |
| 20260506081225 | 77 | 103 | 0.0 | 1.0 | 0.00 | 0.00 | 0.00 | 93 | 1006.8 |
| 20260506080836 | 77 | 101 | 0.0 | 1.0 | 0.00 | 0.01 | 0.00 | 93 | 1005.7 |
| 20260506080728 | 77 | 92 | 0.0 | 1.0 | 0.00 | 0.00 | 0.00 | 93 | 1006.8 |
| 20260506080336 | 77 | 265 | 0.0 | 1.0 | 0.00 | 0.01 | 0.00 | 93 | 1005.7 |
| 20260506080228 | 77 | 281 | 0.0 | 0.0 | 0.00 | 0.00 | 0.00 | 93 | 1006.8 |
| 20260506073336 | 77 | 151 | 0.0 | 2.0 | 0.00 | 0.01 | 0.00 | 92 | 1006.0 |
| 20260506073226 | 77 | 153 | 0.0 | 0.0 | 0.00 | 0.00 | 0.00 | 92 | 1007.1 |
| 20260506072832 | 77 | 149 | 0.0 | 2.0 | 0.00 | 0.01 | 0.00 | 92 | 1006.1 |
| 20260506072723 | 77 | 210 | 0.0 | 1.0 | 0.00 | 0.00 | 0.00 | 92 | 1007.1 |
| 20260506072331 | 77 | 209 | 0.0 | 2.0 | 0.00 | 0.01 | 0.00 | 92 | 1006.0 |
| 20260506072223 | 77 | 209 | 0.0 | 1.0 | 0.00 | 0.00 | 0.00 | 92 | 1007.1 |
| 20260506071723 | 77 | 184 | 0.0 | 1.0 | 0.00 | 0.00 | 0.00 | 92 | 1007.5 |
| 20260506071331 | 77 | 240 | 0.0 | 1.0 | 0.00 | 0.01 | 0.00 | 92 | 1006.2 |
| 20260506071222 | 77 | 164 | 0.0 | 0.0 | 0.00 | 0.00 | 0.00 | 92 | 1007.5 |
| 20260506070832 | 77 | 163 | 0.0 | 1.0 | 0.00 | 0.01 | 0.00 | 92 | 1006.3 |
| 20260506070722 | 77 | 164 | 0.0 | 1.0 | 0.00 | 0.00 | 0.00 | 92 | 1007.5 |
| 20260506070332 | 77 | 205 | 0.0 | 2.0 | 0.00 | 0.01 | 0.00 | 92 | 1006.4 |
| 20260506070224 | 77 | 72 | 0.0 | 0.0 | 0.00 | 0.00 | 0.00 | 92 | 1007.5 |
| 20260506062328 | 78 | 200 | 0.0 | 2.0 | 0.00 | 0.01 | 0.00 | 92 | 1006.7 |
| 20260506062222 | 78 | 177 | 0.0 | 2.0 | 0.00 | 0.00 | 0.00 | 92 | 1007.8 |
| 20260506061828 | 78 | 183 | 0.0 | 3.0 | 0.00 | 0.01 | 0.00 | 91 | 1006.8 |
| 20260506061722 | 78 | 158 | 1.0 | 2.0 | 0.00 | 0.00 | 0.00 | 91 | 1007.8 |
| 20260506061327 | 78 | 160 | 0.0 | 3.0 | 0.00 | 0.01 | 0.00 | 91 | 1006.8 |
| 20260506061221 | 78 | 69 | 0.0 | 3.0 | 0.00 | 0.00 | 0.00 | 91 | 1008.1 |
| 20260506060829 | 78 | 236 | 0.0 | 3.0 | 0.00 | 0.01 | 0.00 | 91 | 1006.9 |
| 20260506060723 | 78 | 252 | 0.0 | 2.0 | 0.00 | 0.00 | 0.00 | 91 | 1008.1 |
| 20260506060327 | 78 | 191 | 0.0 | 4.0 | 0.00 | 0.01 | 0.00 | 91 | 1006.9 |
| 20260506060221 | 78 | 216 | 0.0 | 1.0 | 0.00 | 0.00 | 0.00 | 91 | 1008.1 |
| 20260506051323 | 78 | 192 | 1.0 | 7.0 | 0.00 | 0.01 | 0.00 | 92 | 1006.6 |
| 20260506051219 | 78 | 190 | 0.0 | 5.0 | 0.00 | 0.00 | 0.00 | 92 | 1007.8 |
| 20260506050825 | 78 | 240 | 1.0 | 7.0 | 0.00 | 0.01 | 0.00 | 92 | 1006.7 |
| 20260506050722 | 78 | 194 | 0.0 | 2.0 | 0.00 | 0.00 | 0.00 | 92 | 1007.8 |
| 20260506050219 | 78 | 205 | 1.0 | 3.0 | 0.00 | 0.00 | 0.00 | 92 | 1007.8 |
| 20260506044820 | 78 | 183 | 1.0 | 6.0 | 0.00 | 0.01 | 0.01 | 92 | 1006.5 |
| 20260506044719 | 78 | 155 | 1.0 | 4.0 | 0.00 | 0.00 | 0.01 | 92 | 1007.5 |
| 20260506044318 | 78 | 188 | 1.0 | 3.0 | 0.00 | 0.01 | 0.01 | 92 | 1006.4 |
| 20260506044217 | 78 | 211 | 0.0 | 2.0 | 0.00 | 0.00 | 0.01 | 92 | 1007.5 |
| 20260506043817 | 78 | 246 | 1.0 | 3.0 | 0.00 | 0.01 | 0.01 | 92 | 1006.4 |
| 20260506043717 | 78 | 223 | 1.0 | 2.0 | 0.00 | 0.00 | 0.01 | 92 | 1007.5 |
| 20260506043218 | 78 | 195 | 0.0 | 3.0 | 0.00 | 0.00 | 0.01 | 92 | 1007.5 |
| 20260506042718 | 78 | 124 | 2.0 | 4.0 | 0.00 | 0.00 | 0.01 | 92 | 1007.5 |
| 20260506042319 | 78 | 198 | 1.0 | 4.0 | 0.00 | 0.01 | 0.01 | 92 | 1006.1 |
| 20260506042216 | 78 | 183 | 1.0 | 2.0 | 0.00 | 0.00 | 0.01 | 92 | 1007.1 |
| 20260506041819 | 78 | 182 | 1.0 | 4.0 | 0.00 | 0.01 | 0.01 | 92 | 1006.1 |
| 20260506041717 | 78 | 229 | 3.0 | 3.0 | 0.00 | 0.00 | 0.01 | 92 | 1007.5 |
| 20260506041318 | 78 | 190 | 0.0 | 3.0 | 0.00 | 0.01 | 0.01 | 91 | 1006.1 |
| 20260506041218 | 78 | 221 | 0.0 | 2.0 | 0.00 | 0.00 | 0.01 | 91 | 1007.1 |
| 20260506040818 | 78 | 231 | 1.0 | 4.0 | 0.00 | 0.01 | 0.01 | 91 | 1006.1 |
| 20260506040718 | 78 | 180 | 0.0 | 1.0 | 0.00 | 0.00 | 0.01 | 91 | 1007.1 |
| 20260506040219 | 78 | 222 | 1.0 | 4.0 | 0.00 | 0.00 | 0.01 | 91 | 1007.5 |
| 20260506035815 | 78 | 236 | 1.0 | 3.0 | 0.00 | 0.01 | 0.01 | 91 | 1006.1 |
| 20260506035718 | 78 | 138 | 2.0 | 2.0 | 0.00 | 0.00 | 0.01 | 91 | 1007.1 |
| 20260506035216 | 78 | 211 | 1.0 | 3.0 | 0.00 | 0.00 | 0.01 | 91 | 1007.1 |
| 20260506034812 | 78 | 217 | 1.0 | 3.0 | 0.00 | 0.01 | 0.01 | 91 | 1006.0 |
| 20260506034717 | 78 | 250 | 0.0 | 2.0 | 0.00 | 0.00 | 0.01 | 91 | 1007.1 |
| 20260506034216 | 78 | 213 | 0.0 | 2.0 | 0.00 | 0.00 | 0.01 | 91 | 1007.1 |
| 20260506033810 | 78 | 208 | 1.0 | 3.0 | 0.00 | 0.01 | 0.01 | 91 | 1005.8 |
| 20260506033715 | 78 | 173 | 0.0 | 3.0 | 0.00 | 0.00 | 0.01 | 91 | 1006.8 |
| 20260506033312 | 78 | 173 | 1.0 | 3.0 | 0.00 | 0.01 | 0.01 | 91 | 1005.8 |
| 20260506033217 | 78 | 225 | 0.0 | 3.0 | 0.00 | 0.00 | 0.01 | 91 | 1006.8 |
| 20260506032810 | 78 | 197 | 1.0 | 3.0 | 0.00 | 0.01 | 0.01 | 91 | 1005.8 |
| 20260506032714 | 78 | 217 | 0.0 | 2.0 | 0.00 | 0.00 | 0.01 | 91 | 1006.8 |
| 20260506032308 | 78 | 173 | 1.0 | 3.0 | 0.00 | 0.01 | 0.01 | 91 | 1005.7 |
| 20260506032214 | 78 | 171 | 1.0 | 2.0 | 0.00 | 0.00 | 0.01 | 91 | 1006.8 |
| 20260506031807 | 78 | 207 | 1.0 | 4.0 | 0.00 | 0.01 | 0.01 | 91 | 1005.8 |
| 20260506031716 | 78 | 201 | 2.0 | 3.0 | 0.00 | 0.00 | 0.01 | 91 | 1007.1 |
| 20260506031308 | 78 | 86 | 1.0 | 4.0 | 0.00 | 0.01 | 0.01 | 91 | 1005.8 |
| 20260506031215 | 78 | 242 | 2.0 | 4.0 | 0.00 | 0.00 | 0.01 | 91 | 1007.1 |
| 20260506030808 | 78 | 170 | 0.0 | 2.0 | 0.00 | 0.01 | 0.01 | 91 | 1005.9 |
| 20260506030713 | 78 | 141 | 2.0 | 2.0 | 0.00 | 0.00 | 0.01 | 91 | 1007.1 |
| 20260506030308 | 78 | 207 | 1.0 | 3.0 | 0.00 | 0.01 | 0.01 | 91 | 1005.8 |
| 20260506030216 | 78 | 208 | 0.0 | 2.0 | 0.00 | 0.00 | 0.01 | 91 | 1006.8 |
| 20260506025808 | 78 | 142 | 0.0 | 3.0 | 0.00 | 0.01 | 0.01 | 91 | 1005.8 |
| 20260506025715 | 78 | 225 | 1.0 | 3.0 | 0.00 | 0.00 | 0.01 | 91 | 1006.8 |
| 20260506025308 | 78 | 191 | 0.0 | 2.0 | 0.00 | 0.01 | 0.01 | 91 | 1005.8 |
| 20260506025213 | 78 | 164 | 0.0 | 1.0 | 0.00 | 0.00 | 0.01 | 91 | 1006.8 |
| 20260506024742 | 78 | 229 | 1.0 | 2.0 | 0.00 | 0.00 | 0.01 | 91 | 1006.8 |
| 20260506024304 | 78 | 191 | 1.0 | 5.0 | 0.00 | 0.01 | 0.01 | 90 | 1005.5 |
| 20260506024242 | 78 | 202 | 1.0 | 5.0 | 0.00 | 0.00 | 0.01 | 90 | 1006.8 |
| 20260506023758 | 78 | 176 | 1.0 | 5.0 | 0.00 | 0.01 | 0.01 | 90 | 1005.5 |
| 20260506023739 | 78 | 37 | 0.0 | 2.0 | 0.00 | 0.00 | 0.01 | 90 | 1006.8 |
| 20260506023257 | 78 | 202 | 1.0 | 5.0 | 0.00 | 0.01 | 0.01 | 90 | 1005.5 |
| 20260506023241 | 78 | 111 | 0.0 | 5.0 | 0.00 | 0.00 | 0.01 | 90 | 1006.4 |
| 20260506022746 | 78 | 226 | 0.0 | 2.0 | 0.00 | 0.01 | 0.01 | 90 | 1005.3 |
| 20260506022744 | 78 | 207 | 1.0 | 1.0 | 0.00 | 0.00 | 0.01 | 90 | 1006.4 |
| 20260506022314 | 78 | 212 | 0.0 | 1.0 | 0.00 | 0.00 | 0.01 | 90 | 1006.4 |
| 20260506021815 | 78 | 248 | 0.0 | 3.0 | 0.00 | 0.00 | 0.01 | 90 | 1006.1 |
| 20260506021744 | 78 | 220 | 1.0 | 4.0 | 0.00 | 0.01 | 0.01 | 90 | 1005.1 |
| 20260506021313 | 78 | 217 | 0.0 | 4.0 | 0.00 | 0.00 | 0.01 | 90 | 1006.1 |
| 20260506021244 | 78 | 217 | 1.0 | 4.0 | 0.00 | 0.01 | 0.01 | 90 | 1005.0 |
| 20260506020814 | 78 | 247 | 2.0 | 4.0 | 0.00 | 0.00 | 0.01 | 90 | 1006.1 |
| 20260506020745 | 78 | 247 | 1.0 | 5.0 | 0.00 | 0.01 | 0.01 | 90 | 1004.9 |
| 20260506020314 | 78 | 219 | 1.0 | 5.0 | 0.00 | 0.00 | 0.01 | 90 | 1006.1 |
| 20260506020245 | 78 | 197 | 1.0 | 5.0 | 0.00 | 0.01 | 0.01 | 90 | 1005.1 |
| 20260506015813 | 78 | 242 | 0.0 | 2.0 | 0.00 | 0.00 | 0.01 | 90 | 1006.1 |
| 20260506015744 | 78 | 244 | 1.0 | 5.0 | 0.00 | 0.01 | 0.01 | 90 | 1005.0 |
| 20260506015312 | 78 | 208 | 0.0 | 4.0 | 0.00 | 0.00 | 0.01 | 90 | 1006.1 |
| 20260506015244 | 78 | 209 | 2.0 | 5.0 | 0.00 | 0.01 | 0.01 | 90 | 1004.9 |
| 20260506014836 | 78 | 284 | 1.0 | 2.0 | 0.00 | 0.00 | 0.01 | 90 | 1006.1 |
| 20260506014339 | 78 | 163 | 1.0 | 4.0 | 0.00 | 0.00 | 0.01 | 90 | 1006.1 |
| 20260506014245 | 78 | 186 | 1.0 | 4.0 | 0.00 | 0.01 | 0.01 | 90 | 1004.9 |
| 20260506013814 | 78 | 202 | 1.0 | 3.0 | 0.00 | 0.00 | 0.01 | 90 | 1005.8 |
| 20260506013743 | 78 | 234 | 1.0 | 4.0 | 0.00 | 0.01 | 0.01 | 90 | 1004.7 |
| 20260506013313 | 78 | 209 | 2.0 | 4.0 | 0.00 | 0.00 | 0.01 | 90 | 1006.1 |
| 20260506013244 | 78 | 193 | 1.0 | 5.0 | 0.00 | 0.01 | 0.01 | 90 | 1004.8 |
| 20260506012813 | 78 | 234 | 1.0 | 3.0 | 0.00 | 0.00 | 0.01 | 89 | 1005.8 |
| 20260506012745 | 78 | 235 | 1.0 | 5.0 | 0.00 | 0.01 | 0.01 | 89 | 1004.7 |
| 20260506012315 | 78 | 273 | 1.0 | 5.0 | 0.00 | 0.00 | 0.01 | 89 | 1005.8 |
| 20260506012243 | 78 | 269 | 1.0 | 5.0 | 0.00 | 0.01 | 0.01 | 89 | 1004.7 |
| 20260506011815 | 78 | 257 | 2.0 | 3.0 | 0.00 | 0.00 | 0.01 | 89 | 1005.8 |
| 20260506011744 | 78 | 257 | 1.0 | 4.0 | 0.00 | 0.01 | 0.01 | 89 | 1004.5 |
| 20260506011315 | 79 | 205 | 2.0 | 4.0 | 0.00 | 0.00 | 0.01 | 89 | 1005.8 |
| 20260506011241 | 79 | 273 | 1.0 | 4.0 | 0.00 | 0.01 | 0.01 | 89 | 1004.4 |
| 20260506010811 | 79 | 210 | 1.0 | 2.0 | 0.00 | 0.00 | 0.01 | 89 | 1005.4 |
| 20260506010739 | 79 | 184 | 1.0 | 3.0 | 0.00 | 0.01 | 0.01 | 89 | 1004.4 |
| 20260506010343 | 79 | 165 | 1.0 | 3.0 | 0.00 | 0.00 | 0.01 | 89 | 1005.4 |
| 20260506005838 | 79 | 204 | 1.0 | 2.0 | 0.00 | 0.00 | 0.01 | 88 | 1005.4 |
| 20260506005738 | 79 | 191 | 1.0 | 4.0 | 0.00 | 0.01 | 0.01 | 88 | 1004.2 |
| 20260506005340 | 79 | 211 | 1.0 | 2.0 | 0.00 | 0.00 | 0.01 | 88 | 1005.4 |
| 20260506005237 | 79 | 203 | 1.0 | 3.0 | 0.00 | 0.01 | 0.01 | 88 | 1004.2 |
| 20260506004841 | 79 | 169 | 2.0 | 3.0 | 0.00 | 0.00 | 0.01 | 88 | 1005.4 |
| 20260506004738 | 79 | 228 | 1.0 | 4.0 | 0.00 | 0.01 | 0.01 | 88 | 1004.3 |
| 20260506004340 | 79 | 229 | 1.0 | 4.0 | 0.00 | 0.00 | 0.01 | 88 | 1005.4 |
| 20260506004238 | 80 | 259 | 1.0 | 4.0 | 0.00 | 0.01 | 0.01 | 88 | 1004.2 |
| 20260506003838 | 80 | 145 | 0.0 | 2.0 | 0.00 | 0.00 | 0.01 | 87 | 1005.1 |
| 20260506003738 | 80 | 231 | 1.0 | 4.0 | 0.00 | 0.01 | 0.01 | 87 | 1004.1 |
| 20260506003342 | 80 | 269 | 0.0 | 4.0 | 0.00 | 0.00 | 0.01 | 87 | 1005.1 |
| 20260506003235 | 80 | 196 | 1.0 | 4.0 | 0.00 | 0.01 | 0.01 | 87 | 1004.0 |
| 20260506002912 | 80 | 313 | 0.0 | 2.0 | 0.00 | 0.00 | 0.01 | 87 | 1005.1 |
| 20260506002737 | 80 | 329 | 1.0 | 3.0 | 0.00 | 0.01 | 0.01 | 87 | 1004.0 |
| 20260506002416 | 80 | 212 | 1.0 | 3.0 | 0.00 | 0.00 | 0.01 | 86 | 1005.1 |
| 20260506002236 | 80 | 209 | 1.0 | 3.0 | 0.00 | 0.01 | 0.01 | 86 | 1004.0 |
| 20260506001914 | 80 | 207 | 2.0 | 2.0 | 0.00 | 0.00 | 0.01 | 86 | 1005.1 |
| 20260506001736 | 80 | 236 | 1.0 | 4.0 | 0.00 | 0.01 | 0.01 | 86 | 1004.1 |
| 20260506001411 | 80 | 161 | 0.0 | 1.0 | 0.00 | 0.00 | 0.01 | 86 | 1005.1 |
| 20260506001236 | 80 | 186 | 1.0 | 5.0 | 0.00 | 0.01 | 0.01 | 86 | 1004.0 |
| 20260506000913 | 81 | 211 | 1.0 | 4.0 | 0.00 | 0.00 | 0.01 | 86 | 1005.1 |
| 20260506000735 | 81 | 243 | 1.0 | 5.0 | 0.00 | 0.01 | 0.01 | 86 | 1004.0 |
| 20260506000411 | 81 | 111 | 1.0 | 3.0 | 0.00 | 0.00 | 0.01 | 85 | 1005.1 |
| 20260506000236 | 81 | 213 | 1.0 | 5.0 | 0.00 | 0.01 | 0.01 | 85 | 1003.8 |
| 20260505235914 | 81 | 193 | 1.0 | 3.0 | 0.00 | 0.00 | 0.01 | 85 | 1005.1 |
| 20260505235736 | 81 | 210 | 1.0 | 5.0 | 0.00 | 0.01 | 0.01 | 85 | 1003.8 |
| 20260505235411 | 81 | 202 | 2.0 | 5.0 | 0.00 | 0.00 | 0.01 | 84 | 1004.7 |
| 20260505235236 | 81 | 193 | 1.0 | 6.0 | 0.00 | 0.01 | 0.01 | 84 | 1003.8 |
| 20260505234914 | 82 | 193 | 2.0 | 4.0 | 0.00 | 0.00 | 0.01 | 84 | 1005.1 |
| 20260505234735 | 82 | 209 | 1.0 | 6.0 | 0.00 | 0.01 | 0.01 | 84 | 1003.9 |
| 20260505234414 | 82 | 220 | 1.0 | 6.0 | 0.00 | 0.00 | 0.01 | 84 | 1004.7 |
| 20260505234235 | 82 | 202 | 1.0 | 4.0 | 0.00 | 0.01 | 0.01 | 84 | 1003.9 |
| 20260505233916 | 82 | 122 | 1.0 | 4.0 | 0.00 | 0.00 | 0.01 | 83 | 1005.1 |
| 20260505233733 | 82 | 167 | 1.0 | 4.0 | 0.00 | 0.01 | 0.01 | 83 | 1003.8 |
| 20260505233412 | 82 | 153 | 0.0 | 4.0 | 0.00 | 0.00 | 0.01 | 83 | 1004.7 |
| 20260505232914 | 83 | 264 | 1.0 | 3.0 | 0.00 | 0.00 | 0.01 | 83 | 1004.7 |
| 20260505232732 | 83 | 182 | 1.0 | 4.0 | 0.00 | 0.01 | 0.01 | 83 | 1003.9 |
| 20260505232413 | 83 | 229 | 0.0 | 3.0 | 0.00 | 0.00 | 0.01 | 83 | 1005.1 |
| 20260505232231 | 83 | 207 | 1.0 | 4.0 | 0.00 | 0.01 | 0.01 | 83 | 1003.9 |
| 20260505231912 | 82 | 326 | 1.0 | 4.0 | 0.00 | 0.00 | 0.01 | 83 | 1005.1 |
| 20260505231733 | 82 | 119 | 1.0 | 4.0 | 0.00 | 0.01 | 0.01 | 83 | 1003.9 |
| 20260505231414 | 82 | 335 | 0.0 | 2.0 | 0.00 | 0.00 | 0.01 | 83 | 1005.1 |
| 20260505230912 | 83 | 244 | 1.0 | 3.0 | 0.00 | 0.00 | 0.01 | 83 | 1005.1 |
| 20260505230733 | 83 | 186 | 1.0 | 4.0 | 0.00 | 0.01 | 0.01 | 83 | 1004.0 |
| 20260505230412 | 83 | 238 | 0.0 | 2.0 | 0.00 | 0.00 | 0.01 | 82 | 1005.1 |
| 20260505230231 | 83 | 179 | 1.0 | 4.0 | 0.00 | 0.01 | 0.01 | 82 | 1004.0 |
| 20260505225939 | 83 | 231 | 0.0 | 4.0 | 0.00 | 0.00 | 0.01 | 82 | 1005.1 |
| 20260505225733 | 83 | 210 | 1.0 | 4.0 | 0.00 | 0.01 | 0.01 | 82 | 1004.0 |
| 20260505225438 | 83 | 222 | 3.0 | 3.0 | 0.00 | 0.00 | 0.01 | 82 | 1005.1 |
| 20260505225229 | 83 | 66 | 1.0 | 4.0 | 0.00 | 0.01 | 0.01 | 82 | 1004.1 |
| 20260505224937 | 83 | 200 | 0.0 | 3.0 | 0.00 | 0.00 | 0.01 | 82 | 1005.1 |
| 20260505224728 | 83 | 258 | 1.0 | 4.0 | 0.00 | 0.01 | 0.01 | 82 | 1004.1 |
| 20260505224440 | 83 | 167 | 3.0 | 4.0 | 0.00 | 0.00 | 0.01 | 82 | 1005.4 |
| 20260505224228 | 83 | 123 | 1.0 | 3.0 | 0.00 | 0.01 | 0.01 | 82 | 1004.1 |
| 20260505223942 | 83 | 333 | 0.0 | 2.0 | 0.00 | 0.00 | 0.01 | 82 | 1005.4 |
| 20260505223728 | 83 | 142 | 1.0 | 5.0 | 0.00 | 0.01 | 0.01 | 82 | 1004.2 |
| 20260505223442 | 83 | 200 | 0.0 | 3.0 | 0.00 | 0.00 | 0.01 | 81 | 1005.4 |
| 20260505223227 | 83 | 235 | 1.0 | 5.0 | 0.00 | 0.01 | 0.01 | 81 | 1004.4 |
| 20260505222942 | 84 | 202 | 0.0 | 3.0 | 0.00 | 0.00 | 0.01 | 81 | 1005.4 |
| 20260505222728 | 84 | 154 | 1.0 | 6.0 | 0.00 | 0.01 | 0.01 | 81 | 1004.4 |
| 20260505222439 | 84 | 261 | 1.0 | 4.0 | 0.00 | 0.00 | 0.01 | 80 | 1005.4 |
| 20260505222227 | 84 | 144 | 1.0 | 6.0 | 0.00 | 0.01 | 0.01 | 80 | 1004.3 |
| 20260505221940 | 84 | 201 | 0.0 | 3.0 | 0.00 | 0.00 | 0.01 | 80 | 1005.4 |
| 20260505221728 | 84 | 225 | 1.0 | 5.0 | 0.00 | 0.01 | 0.01 | 80 | 1004.3 |
| 20260505221440 | 84 | 236 | 0.0 | 2.0 | 0.00 | 0.00 | 0.01 | 80 | 1005.4 |
| 20260505221230 | 84 | 171 | 1.0 | 5.0 | 0.00 | 0.01 | 0.01 | 80 | 1004.3 |
| 20260505220942 | 84 | 182 | 2.0 | 5.0 | 0.00 | 0.00 | 0.01 | 80 | 1005.8 |
| 20260505220725 | 84 | 275 | 1.0 | 4.0 | 0.00 | 0.01 | 0.01 | 79 | 1004.3 |
| 20260505220436 | 85 | 253 | 1.0 | 4.0 | 0.00 | 0.00 | 0.01 | 79 | 1005.8 |
| 20260505220225 | 85 | 211 | 1.0 | 4.0 | 0.00 | 0.01 | 0.01 | 79 | 1004.4 |
| 20260505215941 | 85 | 265 | 0.0 | 1.0 | 0.00 | 0.00 | 0.01 | 79 | 1005.4 |
| 20260505215724 | 85 | 221 | 1.0 | 4.0 | 0.00 | 0.01 | 0.01 | 79 | 1004.3 |
| 20260505215510 | 85 | 239 | 0.0 | 4.0 | 0.00 | 0.00 | 0.01 | 79 | 1005.4 |
| 20260505215224 | 85 | 262 | 1.0 | 4.0 | 0.00 | 0.01 | 0.01 | 79 | 1004.4 |
| 20260505215012 | 85 | 350 | 0.0 | 1.0 | 0.00 | 0.00 | 0.01 | 79 | 1005.4 |
| 20260505214723 | 85 | 251 | 1.0 | 4.0 | 0.00 | 0.01 | 0.01 | 79 | 1004.3 |
| 20260505214514 | 85 | 148 | 1.0 | 3.0 | 0.00 | 0.00 | 0.01 | 79 | 1005.4 |
| 20260505214225 | 85 | 244 | 1.0 | 6.0 | 0.00 | 0.01 | 0.01 | 78 | 1004.4 |
| 20260505214012 | 85 | 150 | 0.0 | 2.0 | 0.00 | 0.00 | 0.01 | 78 | 1005.8 |
| 20260505213725 | 85 | 92 | 1.0 | 6.0 | 0.00 | 0.01 | 0.01 | 79 | 1004.4 |
| 20260505213511 | 85 | 214 | 0.0 | 1.0 | 0.00 | 0.00 | 0.01 | 79 | 1005.8 |
| 20260505213223 | 85 | 54 | 1.0 | 5.0 | 0.00 | 0.01 | 0.01 | 79 | 1004.5 |
| 20260505213012 | 85 | 248 | 1.0 | 2.0 | 0.00 | 0.00 | 0.01 | 79 | 1005.8 |
| 20260505212723 | 85 | 258 | 0.0 | 5.0 | 0.00 | 0.01 | 0.01 | 78 | 1004.5 |
| 20260505212510 | 85 | 244 | 1.0 | 1.0 | 0.00 | 0.00 | 0.01 | 79 | 1005.8 |
| 20260505212220 | 85 | 178 | 1.0 | 5.0 | 0.00 | 0.01 | 0.01 | 78 | 1004.6 |
| 20260505212013 | 85 | 229 | 0.0 | 3.0 | 0.00 | 0.00 | 0.01 | 78 | 1005.8 |
| 20260505211720 | 85 | 291 | 1.0 | 5.0 | 0.00 | 0.01 | 0.01 | 78 | 1004.8 |
| 20260505211514 | 86 | 268 | 0.0 | 5.0 | 0.00 | 0.00 | 0.01 | 78 | 1005.8 |
| 20260505211220 | 85 | 309 | 0.0 | 2.0 | 0.00 | 0.01 | 0.01 | 78 | 1004.8 |
| 20260505211012 | 86 | 232 | 0.0 | 1.0 | 0.00 | 0.00 | 0.01 | 78 | 1006.1 |
| 20260505210720 | 86 | 225 | 1.0 | 6.0 | 0.00 | 0.01 | 0.01 | 77 | 1004.8 |
| 20260505210514 | 86 | 22 | 0.0 | 1.0 | 0.00 | 0.00 | 0.01 | 77 | 1006.1 |
| 20260505210219 | 85 | 290 | 2.0 | 6.0 | 0.00 | 0.01 | 0.01 | 76 | 1004.9 |
| 20260505210014 | 86 | 219 | 0.0 | 6.0 | 0.00 | 0.00 | 0.01 | 75 | 1006.1 |
| 20260505205719 | 85 | 306 | 2.0 | 6.0 | 0.00 | 0.01 | 0.01 | 76 | 1004.9 |
| 20260505205512 | 86 | 231 | 3.0 | 3.0 | 0.00 | 0.00 | 0.01 | 76 | 1006.1 |
| 20260505205222 | 85 | 234 | 2.0 | 6.0 | 0.00 | 0.01 | 0.01 | 76 | 1005.0 |
| 20260505205015 | 86 | 231 | 2.0 | 4.0 | 0.00 | 0.00 | 0.01 | 75 | 1006.1 |
| 20260505204720 | 86 | 165 | 2.0 | 6.0 | 0.00 | 0.01 | 0.01 | 75 | 1005.0 |
| 20260505204541 | 86 | 182 | 3.0 | 6.0 | 0.00 | 0.00 | 0.01 | 74 | 1006.1 |
| 20260505204219 | 86 | 234 | 1.0 | 5.0 | 0.00 | 0.01 | 0.01 | 75 | 1005.1 |
| 20260505204043 | 86 | 215 | 1.0 | 5.0 | 0.00 | 0.00 | 0.01 | 75 | 1006.1 |
| 20260505203720 | 86 | 271 | 1.0 | 3.0 | 0.00 | 0.01 | 0.01 | 75 | 1005.2 |
| 20260505203542 | 86 | 157 | 2.0 | 3.0 | 0.00 | 0.00 | 0.01 | 75 | 1006.4 |
| 20260505203220 | 86 | 250 | 1.0 | 4.0 | 0.00 | 0.01 | 0.01 | 75 | 1005.3 |
| 20260505203042 | 86 | 264 | 0.0 | 3.0 | 0.00 | 0.00 | 0.01 | 76 | 1006.4 |
| 20260505202538 | 86 | 174 | 0.0 | 4.0 | 0.00 | 0.00 | 0.01 | 76 | 1006.4 |
| 20260505202038 | 86 | 176 | 0.0 | 3.0 | 0.00 | 0.00 | 0.01 | 77 | 1006.4 |
| 20260505201720 | 85 | 215 | 1.0 | 4.0 | 0.00 | 0.01 | 0.01 | 76 | 1005.3 |
| 20260505201539 | 86 | 200 | 2.0 | 4.0 | 0.00 | 0.00 | 0.01 | 77 | 1006.4 |
| 20260505201220 | 85 | 291 | 1.0 | 3.0 | 0.00 | 0.01 | 0.01 | 76 | 1005.3 |
| 20260505201036 | 85 | 284 | 1.0 | 2.0 | 0.00 | 0.00 | 0.01 | 76 | 1006.4 |
| 20260505200539 | 85 | 234 | 0.0 | 3.0 | 0.00 | 0.00 | 0.01 | 77 | 1006.4 |
| 20260505200043 | 85 | 231 | 0.0 | 4.0 | 0.00 | 0.00 | 0.01 | 77 | 1006.4 |
| 20260505195720 | 85 | 212 | 2.0 | 9.0 | 0.00 | 0.01 | 0.01 | 77 | 1005.5 |
| 20260505195613 | 85 | 240 | 1.0 | 9.0 | 0.00 | 0.00 | 0.01 | 77 | 1006.4 |
| 20260505195219 | 85 | 269 | 2.0 | 8.0 | 0.00 | 0.01 | 0.01 | 78 | 1005.6 |
| 20260505195114 | 85 | 202 | 0.0 | 4.0 | 0.00 | 0.00 | 0.01 | 78 | 1006.8 |
| 20260505194720 | 85 | 210 | 2.0 | 8.0 | 0.00 | 0.01 | 0.01 | 78 | 1005.7 |
| 20260505194612 | 85 | 236 | 1.0 | 6.0 | 0.00 | 0.00 | 0.01 | 78 | 1006.8 |
| 20260505194221 | 85 | 215 | 1.0 | 8.0 | 0.00 | 0.01 | 0.01 | 78 | 1005.8 |
| 20260505194113 | 85 | 235 | 1.0 | 8.0 | 0.00 | 0.00 | 0.01 | 78 | 1006.8 |
| 20260505193726 | 85 | 293 | 1.0 | 4.0 | 0.00 | 0.01 | 0.01 | 78 | 1005.8 |
| 20260505193611 | 85 | 234 | 2.0 | 3.0 | 0.00 | 0.00 | 0.01 | 78 | 1006.8 |
| 20260505193220 | 85 | 246 | 1.0 | 5.0 | 0.00 | 0.01 | 0.01 | 78 | 1005.8 |
| 20260505193111 | 85 | 258 | 1.0 | 2.0 | 0.00 | 0.00 | 0.01 | 79 | 1007.1 |
| 20260505192719 | 84 | 223 | 1.0 | 7.0 | 0.00 | 0.01 | 0.01 | 79 | 1006.0 |
| 20260505192613 | 84 | 235 | 2.0 | 5.0 | 0.00 | 0.00 | 0.01 | 79 | 1007.1 |
| 20260505192222 | 84 | 221 | 1.0 | 7.0 | 0.00 | 0.01 | 0.01 | 80 | 1006.0 |
| 20260505192114 | 84 | 221 | 0.0 | 3.0 | 0.00 | 0.00 | 0.01 | 80 | 1007.1 |
| 20260505191721 | 84 | 257 | 0.0 | 4.0 | 0.00 | 0.01 | 0.01 | 81 | 1006.0 |
| 20260505191614 | 84 | 196 | 1.0 | 2.0 | 0.00 | 0.00 | 0.01 | 81 | 1007.1 |
| 20260505191220 | 83 | 261 | 1.0 | 5.0 | 0.00 | 0.01 | 0.01 | 81 | 1006.0 |
| 20260505191114 | 83 | 150 | 0.0 | 1.0 | 0.00 | 0.00 | 0.01 | 81 | 1007.1 |
| 20260505190715 | 83 | 238 | 2.0 | 6.0 | 0.00 | 0.01 | 0.01 | 81 | 1006.0 |
| 20260505190613 | 83 | 240 | 1.0 | 4.0 | 0.00 | 0.00 | 0.01 | 81 | 1007.1 |
| 20260505190113 | 83 | 186 | 0.0 | 4.0 | 0.00 | 0.00 | 0.01 | 82 | 1007.1 |
| 20260505185702 | 82 | 221 | 2.0 | 6.0 | 0.00 | 0.01 | 0.01 | 82 | 1006.1 |
| 20260505185613 | 82 | 217 | 0.0 | 4.0 | 0.00 | 0.00 | 0.01 | 82 | 1007.5 |
| 20260505185156 | 82 | 215 | 2.0 | 4.0 | 0.00 | 0.01 | 0.01 | 82 | 1006.2 |
| 20260505185114 | 82 | 207 | 2.0 | 4.0 | 0.00 | 0.00 | 0.01 | 82 | 1007.5 |
| 20260505184650 | 82 | 217 | 1.0 | 4.0 | 0.00 | 0.01 | 0.01 | 83 | 1006.2 |
| 20260505184611 | 82 | 196 | 1.0 | 2.0 | 0.00 | 0.00 | 0.01 | 83 | 1007.5 |
| 20260505184143 | 82 | 207 | 1.0 | 3.0 | 0.00 | 0.01 | 0.01 | 83 | 1006.3 |
| 20260505184113 | 82 | 234 | 0.0 | 3.0 | 0.00 | 0.00 | 0.01 | 83 | 1007.5 |
| 20260505183638 | 82 | 214 | 1.0 | 4.0 | 0.00 | 0.01 | 0.01 | 84 | 1006.4 |
| 20260505183612 | 82 | 227 | 0.0 | 1.0 | 0.00 | 0.00 | 0.01 | 84 | 1007.5 |
| 20260505183113 | 82 | 232 | 1.0 | 4.0 | 0.00 | 0.00 | 0.01 | 83 | 1007.5 |
| 20260505182626 | 82 | 224 | 1.0 | 4.0 | 0.00 | 0.01 | 0.01 | 83 | 1006.4 |
| 20260505182615 | 82 | 237 | 2.0 | 2.0 | 0.00 | 0.00 | 0.01 | 83 | 1007.5 |
| 20260505182114 | 82 | 230 | 1.0 | 4.0 | 0.00 | 0.00 | 0.01 | 82 | 1007.5 |
| 20260505181614 | 82 | 227 | 1.0 | 2.0 | 0.00 | 0.01 | 0.01 | 82 | 1006.5 |
| 20260505181612 | 82 | 203 | 1.0 | 2.0 | 0.00 | 0.00 | 0.01 | 82 | 1007.5 |
| 20260505181116 | 83 | 176 | 2.0 | 2.0 | 0.00 | 0.00 | 0.01 | 81 | 1007.8 |
| 20260505181110 | 83 | 176 | 1.0 | 5.0 | 0.00 | 0.01 | 0.01 | 81 | 1006.5 |
| 20260505180614 | 83 | 159 | 0.0 | 1.0 | 0.00 | 0.00 | 0.01 | 82 | 1007.8 |
| 20260505180602 | 83 | 159 | 1.0 | 5.0 | 0.00 | 0.01 | 0.01 | 82 | 1006.6 |
| 20260505180111 | 84 | 279 | 0.0 | 2.0 | 0.00 | 0.00 | 0.01 | 82 | 1007.8 |
| 20260505175614 | 83 | 219 | 0.0 | 2.0 | 0.00 | 0.00 | 0.01 | 82 | 1007.8 |
| 20260505175550 | 83 | 219 | 0.0 | 2.0 | 0.00 | 0.01 | 0.01 | 82 | 1006.6 |
| 20260505175137 | 83 | 202 | 0.0 | 2.0 | 0.00 | 0.00 | 0.01 | 83 | 1007.8 |
| 20260505175044 | 83 | 201 | 1.0 | 4.0 | 0.00 | 0.01 | 0.01 | 83 | 1006.6 |
| 20260505174641 | 82 | 196 | 0.0 | 4.0 | 0.00 | 0.00 | 0.01 | 84 | 1007.8 |
| 20260505174538 | 82 | 196 | 2.0 | 5.0 | 0.00 | 0.01 | 0.01 | 84 | 1006.6 |
| 20260505174143 | 82 | 226 | 0.0 | 3.0 | 0.00 | 0.00 | 0.01 | 84 | 1007.8 |
| 20260505174032 | 82 | 238 | 2.0 | 6.0 | 0.00 | 0.01 | 0.01 | 84 | 1006.6 |
| 20260505173639 | 82 | 217 | 2.0 | 6.0 | 0.00 | 0.00 | 0.01 | 85 | 1007.8 |
| 20260505173526 | 82 | 234 | 1.0 | 6.0 | 0.00 | 0.01 | 0.01 | 85 | 1006.6 |
| 20260505173140 | 81 | 168 | 1.0 | 2.0 | 0.00 | 0.00 | 0.01 | 86 | 1007.8 |
| 20260505172711 | 81 | 216 | 1.0 | 2.0 | 0.00 | 0.00 | 0.01 | 85 | 1007.8 |
| 20260505172514 | 81 | 180 | 1.0 | 10.0 | 0.00 | 0.01 | 0.01 | 85 | 1006.7 |
| 20260505172237 | 81 | 215 | 3.0 | 4.0 | 0.00 | 0.00 | 0.01 | 86 | 1008.1 |
| 20260505172008 | 81 | 248 | 1.0 | 10.0 | 0.00 | 0.01 | 0.01 | 86 | 1006.9 |
| 20260505171734 | 81 | 160 | 1.0 | 1.0 | 0.00 | 0.00 | 0.01 | 87 | 1008.1 |
| 20260505171502 | 81 | 211 | 1.0 | 5.0 | 0.00 | 0.01 | 0.01 | 86 | 1006.9 |
| 20260505171234 | 81 | 229 | 0.0 | 3.0 | 0.00 | 0.00 | 0.01 | 87 | 1008.1 |
| 20260505170956 | 80 | 219 | 1.0 | 4.0 | 0.00 | 0.01 | 0.01 | 88 | 1006.9 |
| 20260505170736 | 80 | 178 | 1.0 | 2.0 | 0.00 | 0.00 | 0.01 | 88 | 1008.1 |
| 20260505170451 | 80 | 233 | 1.0 | 4.0 | 0.00 | 0.01 | 0.01 | 88 | 1007.0 |
| 20260505170235 | 80 | 217 | 1.0 | 4.0 | 0.00 | 0.00 | 0.01 | 88 | 1008.1 |
| 20260505165944 | 80 | 205 | 2.0 | 6.0 | 0.00 | 0.01 | 0.01 | 88 | 1007.0 |
| 20260505165735 | 80 | 217 | 0.0 | 2.0 | 0.00 | 0.00 | 0.01 | 88 | 1008.1 |
| 20260505165438 | 80 | 175 | 3.0 | 9.0 | 0.00 | 0.01 | 0.01 | 88 | 1007.1 |
| 20260505165235 | 80 | 228 | 2.0 | 6.0 | 0.00 | 0.00 | 0.01 | 88 | 1008.1 |
| 20260505164932 | 80 | 223 | 3.0 | 9.0 | 0.00 | 0.01 | 0.01 | 88 | 1007.0 |
| 20260505164735 | 79 | 207 | 2.0 | 8.0 | 0.00 | 0.00 | 0.01 | 88 | 1008.1 |
| 20260505164427 | 79 | 234 | 2.0 | 7.0 | 0.00 | 0.01 | 0.01 | 89 | 1007.0 |
| 20260505164234 | 79 | 217 | 2.0 | 5.0 | 0.00 | 0.00 | 0.01 | 90 | 1008.1 |
| 20260505163735 | 79 | 217 | 3.0 | 4.0 | 0.00 | 0.00 | 0.01 | 90 | 1008.5 |
| 20260505163414 | 79 | 228 | 3.0 | 9.0 | 0.00 | 0.01 | 0.01 | 90 | 1007.2 |
| 20260505163235 | 79 | 238 | 4.0 | 6.0 | 0.00 | 0.00 | 0.01 | 90 | 1008.5 |
| 20260505162915 | 78 | 243 | 2.0 | 5.0 | 0.00 | 0.01 | 0.01 | 91 | 1007.2 |
| 20260505162746 | 78 | 209 | 3.0 | 4.0 | 0.00 | 0.00 | 0.01 | 92 | 1008.5 |
| 20260505162234 | 78 | 212 | 1.0 | 3.0 | 0.00 | 0.00 | 0.01 | 92 | 1008.1 |
| 20260505161735 | 78 | 244 | 2.0 | 5.0 | 0.00 | 0.00 | 0.01 | 92 | 1008.5 |
| 20260505161413 | 78 | 233 | 2.0 | 8.0 | 0.00 | 0.01 | 0.01 | 92 | 1007.2 |
| 20260505161233 | 78 | 178 | 1.0 | 4.0 | 0.00 | 0.00 | 0.01 | 93 | 1008.5 |
| 20260505160914 | 78 | 218 | 1.0 | 4.0 | 0.00 | 0.01 | 0.01 | 93 | 1007.1 |
| 20260505160733 | 77 | 236 | 1.0 | 1.0 | 0.00 | 0.00 | 0.01 | 94 | 1008.5 |
| 20260505160411 | 77 | 221 | 2.0 | 11.0 | 0.00 | 0.01 | 0.01 | 94 | 1007.1 |
| 20260505160233 | 77 | 230 | 2.0 | 3.0 | 0.00 | 0.00 | 0.01 | 94 | 1008.5 |
| 20260505153235 | 76 | 229 | 0.0 | 1.0 | 0.00 | 0.00 | 0.01 | 96 | 1008.1 |
| 20260505152911 | 76 | 236 | 0.0 | 1.0 | 0.00 | 0.01 | 0.01 | 96 | 1007.0 |
| 20260505152733 | 76 | 205 | 0.0 | 1.0 | 0.00 | 0.00 | 0.01 | 96 | 1008.1 |
| 20260505152409 | 76 | 221 | 0.0 | 2.0 | 0.00 | 0.01 | 0.01 | 96 | 1007.0 |
| 20260505152234 | 76 | 221 | 0.0 | 0.0 | 0.00 | 0.00 | 0.01 | 96 | 1008.1 |
| 20260505151907 | 75 | 222 | 1.0 | 2.0 | 0.00 | 0.01 | 0.01 | 96 | 1007.0 |
| 20260505151732 | 75 | 229 | 2.0 | 2.0 | 0.00 | 0.00 | 0.01 | 96 | 1008.1 |
| 20260505151232 | 75 | 249 | 0.0 | 1.0 | 0.00 | 0.00 | 0.01 | 96 | 1008.1 |
| 20260505150735 | 75 | 239 | 2.0 | 2.0 | 0.00 | 0.00 | 0.01 | 96 | 1008.1 |
| 20260505150405 | 75 | 223 | 0.0 | 2.0 | 0.00 | 0.01 | 0.01 | 96 | 1007.0 |
| 20260505150232 | 75 | 228 | 0.0 | 1.0 | 0.00 | 0.00 | 0.01 | 96 | 1008.1 |